Location: Rostock
(54.0884°N, 12.1234°E)
Time: 05:29:56
(UTC+02:00)

Tiangong 2 - Visible Passes

Search period start: 21 May 2018 00:00
Search period end: 31 May 2018 00:00
Orbit: 382 x 386 km, 42.8° (Epoch: 20 May)

Date Brightness Start Highest point End Pass type
(mag) Time Alt. Az. Time Alt. Az. Time Alt. Az.
24 May 3.5 23:13:12 10° SSW 23:13:16 10° SSW 23:13:16 10° SSW visible
25 May 3.3 22:13:50 10° S 22:14:43 11° S 22:15:34 10° SSE visible
26 May 3.3 22:50:16 10° SSW 22:51:01 11° S 22:51:28 10° S visible
